Find Starlink 35932

NORAD ID: 66526 Int'l Des: 2025-265 Owner: SPXS Country: US Constellation: starlink operational
LEOCIRCULAR

当前视图

正在加载3D地球...

About Starlink 35932

Starlink 35932 (NORAD 66526) is a starlink constellation satellite (v2 mini) launched Nov 19, 2025 by SPXS of US. It operates in LEO, CIRCULAR orbit with a mass of 575.00 kg.

关于 Starlink 35932

正在加载描述...

即将过境

Passes for default location (London). Set your location on the main map for personalized predictions.

高度历史

Loading altitude history...

两行轨道根数

1 66526U 25265L 26161.14160880 .00024830 00000-0 90815-3 0 9992
2 66526 43.0092 115.7442 0004157 280.0262 80.0121 15.27598271 31256
Epoch: Jun 10, 2026 • Age: 8 hours

当前状态

高度 487.2 km
速度 7.63 km/s
星下点 35.39°N, 169.04°E
发射日期 Nov 19, 2025
运行时间 0.5 years
类型 internet

技术详情

分类 Payload
质量 575.00 kg
干质量 530.00 kg
总质量 575.00 kg
长度 0.30 m
直径 4.10 m
跨度 29.00 m
形状 Box + pan
制造商 SPXS
平台类型 Starlink V2MO
阶段状态 In Orbit
所有者/国家 SPXS/US

Most Searched